SCP
0 0 0 0 0 0 0 0 0 0 0 0 0 0 0 0 0 0 0 0 0 0 0 0 0 0 0 0 0 0 0 0 0 0 0 0 0 0 0 0 0 -0 0
0 0 0 0 0 0 0 0 0 0 0 0 0 0 0 0 0 0 0 0 0 0 0 0 0 0 0 0 0 0 0 0 0 0 0 0 0 0 0 0 0 0 0
0 0 0 0 0 0 0 0 0 0 0 0 0 0 0 0 0 0 0 0 0 0 0 0 0 0 0 0 0 0 0 0 0 0 0 0 0 0 0 0 0 -0 -0
0 0 0 0 0 0 0 0 0 0 0 0 0 0 0 0 0 0 0 0 0 0 0 0 0 0 0 0 0 0 0 0 0 0 0 0 0 0 0 0 0 -0 -0
1 1 1 0 0 0 0 0 0 0 0 0 0 0 0 0 0 0 0 0 0 0 0 0 0 0 0 0 0 0 0 0 0 0 0 0 0 0 0 0 0 0 0
1 1 0 0 0 0 0 0 0 0 0 0 0 0 0 0 0 0 0 0 0 0 0 0 0 0 0 0 0 0 0 0 0 0 0 0 0 0 -0 -0 0 0 0
0 0 0 0 0 0 0 0 0 0 0 0 0 0 0 0 0 0 0 0 0 0 0 0 0 0 0 0 0 0 0 0 0 0 0 0 0 0 -0 0 -0 0 0
0 0 0 0 0 0 0 0 0 0 0 0 0 0 0 0 0 0 0 0 0 0 0 0 0 0 0 0 0 0 0 0 0 0 0 0 0 0 0 0 0 -0 0
0 0 0 0 0 0 0 0 0 0 0 0 0 0 0 0 0 0 0 0 0 0 0 0 0 0 0 0 0 0 0 0 0 0 0 0 0 0 0 -0 -0 -0 0
0 0 0 0 0 0 0 0 0 0 0 0 0 0 0 0 0 0 0 0 0 0 0 0 0 0 0 0 0 0 0 0 0 0 0 0 0 0 0 -0 0 0 -0
0 0 0 0 0 0 0 0 0 0 0 0 0 0 0 0 0 0 0 0 0 0 0 0 0 0 0 0 0 0 0 0 0 0 0 -0 -0 -0 -0 -0 0 0 0
0 0 0 0 0 0 0 0 0 0 0 0 0 -0 0 0 0 0 0 0 0 0 0 0 0 0 0 0 0 0 0 0 0 0 0 -0 -0 -0 -0 -0 -0 0 0
0 0 0 0 0 0 0 0 0 0 0 0 -0 -0 -0 0 0 0 0 0 0 0 0 0 0 0 0 0 0 0 0 0 0 0 0 -0 -0 -0 -0 0 0 0 0
0 0 0 0 0 0 0 0 0 0 0 0 -0 -0 -0 0 0 0 0 0 0 0 0 0 0 0 0 0 0 0 0 -0 -0 0 0 0 -0 -0 0 0 0 0 0
0 0 0 0 0 0 0 0 0 0 -0 -0 0 0 -0 -0 -0 0 0 0 0 0 0 0 0 0 0 0 0 0 0 -0 -0 -0 -0 0 -0 -0 0 0 0 0 0
0 0 0 0 0 0 0 0 0 0 -0 0 -0 -0 0 0 0 0 0 0 0 0 0 0 0 0 0 0 0 0 0 -0 -0 0 0 -0 -0 0 0 0 0 0 0
-0 -0 0 0 0 0 0 0 0 0 0 -0 -0 0 0 -0 0 0 0 0 0 0 0 0 0 0 0 0 0 0 0 0 0 -0 -0 -0 -0 0 0 0 0 0 0
0 -0 -0 -0 -0 0 0 0 0 0 0 0 0 0 0 0 -0 0 0 0 0 0 0 0 0 0 0 0 0 0 0 0 0 -0 -0 -0 -0 -0 0 0 -0 -0 0
0 0 -0 -0 -0 0 0 0 0 0 0 0 0 0 -0 0 0 0 0 0 0 0 0 0 0 0 0 0 0 0 0 0 0 -0 -0 -0 -0 0 0 -0 0 0 0
-0 -0 -0 -0 -0 -0 -0 -0 0 0 0 0 0 -0 -0 -0 -0 0 0 0 0 0 0 0 0 0 0 0 0 0 0 0 0 0 0 -0 0 0 0 -0 0 0 -0
-0 0 -0 -0 -0 -0 -0 0 0 0 0 0 0 -0 0 0 0 0 0 0 0 0 0 0 0 0 0 0 0 0 0 0 0 0 0 0 0 0 -0 0 0 -0 -0
-0 0 -0 -0 -0 0 0 -0 0 0 0 0 0 0 0 0 0 0 0 0 0 0 0 0 0 0 0 0 0 0 0 0 0 0 0 0 -0 -0 0 0 -0 -0 -0
-0 0 0 0 0 0 0 0 0 0 0 0 0 0 0 0 0 0 0 0 0 0 0 0 0 0 0 0 0 0 0 0 0 0 -0 0 0 0 0 0 -0 -0 -0
-0 0 0 0 0 0 0 -0 0 0 0 0 0 0 0 0 0 0 0 0 0 0 0 0 0 0 0 0 0 0 0 0 0 -0 0 0 0 -0 -0 0 0 0 0
0 0 0 0 0 0 0 0 0 0 0 0 0 0 0 0 0 0 0 0 0 0 0 0 0 0 0 0 0 0 -0 0 0 0 0 0 -0 -0 0 -0 0 0 0
0 0 0 0 0 0 0 0 0 0 0 0 0 -0 -0 0 0 0 0 0 0 0 0 0 0 0 0 0 0 0 0 0 0 0 -0 -0 0 -0 0 -0 0 0 0
Wind_Speed_500mb
61 49 44 39 34 33 33 30 30 26 28 29 28 28 26 28 28 27 23 24 32 37 38 39 38 28 25 24 30 41 42 40 44 47 47 42 37 35 39 39 38 40 40
57 52 41 35 38 40 35 32 35 36 35 33 33 33 34 37 35 38 40 33 32 36 33 37 34 31 23 24 30 42 43 47 46 42 44 42 36 37 38 38 40 39 38
41 41 35 37 41 40 40 38 40 43 43 43 44 40 35 30 36 31 38 38 33 31 37 34 34 30 31 27 32 44 45 47 48 42 41 42 39 37 37 38 40 40 38
38 35 35 36 35 44 46 42 43 42 44 51 51 43 40 36 30 30 29 32 36 25 37 33 32 33 34 34 35 43 45 46 48 44 42 42 41 39 39 38 40 41 41
40 33 37 29 32 44 46 43 43 44 44 46 47 41 38 39 37 33 33 36 38 34 28 23 22 17 32 34 34 41 45 45 48 44 43 43 41 41 39 40 43 45 41
41 32 33 31 34 36 38 40 43 45 45 40 40 36 37 40 35 38 34 34 39 40 38 26 23 20 24 35 34 38 44 44 48 48 46 47 45 43 43 46 46 39 33
35 25 29 32 32 34 39 38 42 38 40 37 35 33 37 41 38 34 33 33 37 39 45 38 27 25 22 32 35 39 42 43 48 52 46 45 46 47 47 51 43 35 37
29 30 31 31 31 37 43 44 39 40 36 35 35 31 25 36 39 38 39 42 37 37 33 36 36 32 25 26 36 41 42 43 49 54 51 53 51 47 53 53 41 42 36
30 34 31 31 36 40 41 36 33 33 29 26 30 26 12 18 16 29 42 40 42 40 38 33 31 40 30 30 33 42 45 42 48 51 51 54 53 49 50 46 44 39 39
34 31 32 39 38 39 27 21 19 20 22 23 28 33 33 11 7 5 27 40 38 40 36 34 33 35 40 32 26 41 44 42 51 56 47 54 54 55 56 50 47 46 42
39 36 38 39 35 23 17 15 15 16 19 21 29 30 32 38 33 14 5 38 42 39 35 32 35 40 38 38 33 40 42 39 52 60 52 60 59 61 57 54 51 48 42
31 31 36 34 22 14 10 10 11 11 14 18 22 27 32 31 36 37 24 28 43 40 36 38 31 38 38 38 33 39 41 41 54 61 56 62 67 64 57 58 56 47 37
23 26 27 20 16 10 7 6 5 6 9 10 13 16 20 29 20 29 31 24 44 37 32 36 36 39 40 39 39 35 44 44 56 73 57 71 54 63 63 61 55 42 38
20 19 14 13 11 10 10 8 6 6 7 10 12 16 17 22 29 28 27 37 42 33 34 31 31 30 41 42 42 42 46 56 59 64 44 55 68 60 66 58 50 39 31
12 12 9 8 7 6 8 6 9 10 10 10 11 16 19 24 26 28 23 38 42 27 32 29 23 31 32 37 40 48 52 62 62 53 57 79 70 73 61 56 47 39 33
15 9 8 6 5 5 7 6 7 10 7 5 7 12 18 23 28 28 21 30 36 36 31 34 25 28 29 37 43 47 57 66 58 53 64 69 64 65 53 44 38 33 25
12 12 8 2 2 6 8 7 13 12 11 12 15 11 15 19 21 25 31 34 41 40 34 41 35 27 39 44 56 54 62 63 63 60 78 65 61 52 47 40 35 27 23
15 10 3 3 9 15 10 10 13 18 20 13 11 19 16 18 19 21 25 30 35 42 42 49 42 43 55 60 66 71 76 72 80 71 65 66 57 54 47 42 37 29 24
14 8 5 7 15 12 5 2 7 15 20 20 11 16 17 20 26 27 19 21 33 35 41 56 53 52 70 74 71 87 85 78 79 71 64 58 49 41 40 34 28 26 23
14 7 5 5 9 7 8 2 5 5 8 18 19 16 20 22 16 21 25 31 39 45 55 58 56 65 69 84 90 94 93 84 77 66 58 48 43 35 35 34 28 25 21
11 9 7 2 7 5 6 4 5 8 8 11 18 19 21 18 19 20 38 45 41 44 60 68 79 87 87 87 96 93 84 76 66 59 57 48 42 40 34 28 25 21 15
17 11 7 2 6 6 10 9 14 9 11 18 27 24 18 17 17 28 35 32 30 47 68 86 99 100 95 100 97 91 90 80 61 52 61 52 41 35 29 25 20 17 16
17 14 7 2 3 4 11 13 14 14 16 23 24 27 24 20 23 47 48 51 64 80 85 91 97 101 100 94 90 82 75 72 71 60 51 48 39 30 27 23 22 20 13
18 16 10 6 4 3 9 12 16 20 20 24 23 30 30 29 37 52 62 58 75 84 92 97 91 97 90 87 80 76 73 67 61 54 43 43 38 30 26 25 22 16 12
26 21 12 8 7 4 7 12 20 23 22 24 23 29 30 34 46 62 66 73 70 63 80 76 73 79 76 68 59 59 62 62 56 50 45 25 34 31 26 25 23 20 17
25 22 17 12 9 11 10 14 19 20 23 24 23 28 32 43 47 63 61 52 61 57 50 58 67 63 52 48 49 50 53 53 54 46 41 24 33 28 22 28 28 25 23
Wind_Direction_500mb
241 241 248 250 260 260 256 265 263 261 265 274 271 262 259 266 265 263 257 248 243 235 235 224 219 226 236 235 227 214 199 202 201 210 214 212 213 204 201 209 202 198 202
245 242 245 252 253 253 254 263 272 273 267 265 270 271 266 262 260 256 263 265 247 242 227 227 228 229 237 238 224 213 205 198 203 212 211 214 209 202 207 203 198 195 194
234 228 236 244 247 251 259 265 266 271 265 263 268 270 254 245 248 255 255 252 237 237 230 235 236 233 237 235 221 213 209 201 198 211 207 211 208 206 202 198 196 198 183
222 222 238 249 256 251 257 259 262 259 262 262 263 260 250 241 235 246 249 247 236 233 229 228 241 247 240 228 218 211 211 206 204 205 203 210 208 202 200 199 194 184 176
214 219 240 257 266 258 260 267 270 266 272 266 256 253 244 241 234 243 249 238 231 224 220 212 219 246 226 216 217 212 210 209 202 204 206 211 204 201 199 194 189 180 173
204 232 243 259 272 257 263 275 280 280 276 263 254 245 242 237 238 245 251 236 232 219 214 209 228 242 230 215 211 212 211 207 200 206 206 209 199 200 197 191 188 169 165
234 234 245 271 274 274 280 280 284 281 271 253 247 248 238 233 239 240 246 231 219 219 228 230 222 230 230 218 216 210 211 205 202 201 206 203 201 199 191 189 190 174 172
222 240 263 273 277 280 284 286 278 269 264 247 242 240 238 241 242 242 239 229 226 218 220 215 220 228 234 221 215 210 209 206 204 197 201 205 205 194 185 192 181 183 172
241 253 257 267 270 283 284 277 269 261 259 245 235 222 198 224 222 239 234 222 216 207 207 217 219 227 236 222 221 212 206 206 201 198 207 201 202 192 193 183 180 170 175
239 246 262 269 274 284 278 275 268 254 241 234 223 222 228 216 217 247 221 217 215 207 211 218 221 228 223 220 216 209 205 203 200 198 201 196 195 192 181 178 172 174 175
227 244 259 275 276 275 267 269 263 249 242 230 223 228 236 238 238 246 203 207 209 215 228 224 226 220 227 218 222 206 204 205 197 196 198 198 191 185 177 169 171 172 169
230 252 267 269 258 257 265 269 265 254 244 236 230 229 229 230 228 225 233 210 208 205 216 216 212 218 233 223 216 206 201 202 198 197 193 199 192 183 177 170 172 172 168
252 263 261 243 238 259 252 243 227 209 209 203 212 215 216 219 208 226 238 212 199 196 208 216 222 223 224 217 209 201 200 199 200 203 210 188 186 173 173 168 167 171 175
255 254 211 217 238 241 238 248 275 237 217 219 224 216 211 206 211 225 232 205 182 191 207 218 214 212 213 210 203 206 198 193 197 199 200 200 180 173 166 164 172 159 144
212 182 201 214 224 254 257 278 253 264 229 226 247 227 218 206 209 217 222 207 202 174 199 200 195 208 213 200 200 195 191 188 188 188 193 192 184 181 173 176 162 160 161
152 155 167 199 231 277 285 268 236 229 218 222 210 188 203 205 205 215 210 209 210 217 181 188 181 185 198 187 186 186 181 182 186 191 187 188 166 163 168 159 172 153 159
140 140 127 141 230 351 315 239 233 219 202 243 242 219 205 203 204 215 216 198 199 213 214 178 192 186 193 181 179 175 179 182 185 187 186 161 159 160 158 151 147 162 164
168 164 188 348 342 329 310 213 222 225 227 244 232 210 203 197 184 193 187 192 210 216 211 171 159 167 172 175 174 167 170 180 180 171 150 155 156 153 150 159 162 171 197
163 167 243 316 326 327 340 351 220 220 229 221 224 206 195 174 169 177 237 196 185 178 186 162 154 161 158 157 166 162 164 146 141 139 143 150 156 153 163 171 168 154 169
178 212 252 309 360 27 76 44 290 258 255 197 199 198 179 168 164 164 163 165 157 155 159 157 147 154 158 156 161 147 143 142 145 152 153 148 144 144 134 140 156 170 180
177 181 202 343 26 43 58 35 11 69 112 152 167 163 164 171 177 183 159 154 157 159 160 158 149 141 150 151 147 147 143 148 150 151 147 146 153 161 163 162 170 180 189
181 190 199 14 15 50 63 68 78 90 120 130 140 140 147 164 174 175 169 173 184 171 168 161 151 145 145 149 147 149 152 155 145 156 150 157 164 164 165 172 180 184 182
184 190 217 209 13 70 72 87 92 103 116 133 135 132 130 137 158 159 159 164 162 160 163 162 149 154 150 151 152 156 156 160 157 157 165 159 160 173 179 181 183 185 197
193 212 206 199 201 109 79 109 110 119 117 118 125 131 127 130 138 148 142 151 148 148 152 157 154 154 153 158 159 162 165 161 154 156 171 168 168 177 189 189 190 195 219
201 216 216 221 197 188 124 129 138 130 123 117 112 124 130 141 138 145 141 139 140 145 147 149 153 154 155 161 164 159 161 161 156 166 175 189 176 180 192 201 203 214 231
210 220 219 199 192 199 171 159 161 149 134 126 122 126 133 144 148 152 148 142 147 148 153 155 158 157 161 161 168 168 163 168 165 169 178 189 190 188 203 212 215 224 237
Wind_Speed_850mb
61 49 44 39 34 33 33 30 30 26 28 29 28 28 26 28 28 27 23 24 32 37 38 39 38 28 25 24 30 41 42 40 44 47 47 42 37 35 39 39 38 40 40
57 52 41 35 38 40 35 32 35 36 35 33 33 33 34 37 35 38 40 33 32 36 33 37 34 31 23 24 30 42 43 47 46 42 44 42 36 37 38 38 40 39 38
41 41 35 37 41 40 40 38 40 43 43 43 44 40 35 30 36 31 38 38 33 31 37 34 34 30 31 27 32 44 45 47 48 42 41 42 39 37 37 38 40 40 38
38 35 35 36 35 44 46 42 43 42 44 51 51 43 40 36 30 30 29 32 36 25 37 33 32 33 34 34 35 43 45 46 48 44 42 42 41 39 39 38 40 41 41
40 33 37 29 32 44 46 43 43 44 44 46 47 41 38 39 37 33 33 36 38 34 28 23 22 17 32 34 34 41 45 45 48 44 43 43 41 41 39 40 43 45 41
41 32 33 31 34 36 38 40 43 45 45 40 40 36 37 40 35 38 34 34 39 40 38 26 23 20 24 35 34 38 44 44 48 48 46 47 45 43 43 46 46 39 33
35 25 29 32 32 34 39 38 42 38 40 37 35 33 37 41 38 34 33 33 37 39 45 38 27 25 22 32 35 39 42 43 48 52 46 45 46 47 47 51 43 35 37
29 30 31 31 31 37 43 44 39 40 36 35 35 31 25 36 39 38 39 42 37 37 33 36 36 32 25 26 36 41 42 43 49 54 51 53 51 47 53 53 41 42 36
30 34 31 31 36 40 41 36 33 33 29 26 30 26 12 18 16 29 42 40 42 40 38 33 31 40 30 30 33 42 45 42 48 51 51 54 53 49 50 46 44 39 39
34 31 32 39 38 39 27 21 19 20 22 23 28 33 33 11 7 5 27 40 38 40 36 34 33 35 40 32 26 41 44 42 51 56 47 54 54 55 56 50 47 46 42
39 36 38 39 35 23 17 15 15 16 19 21 29 30 32 38 33 14 5 38 42 39 35 32 35 40 38 38 33 40 42 39 52 60 52 60 59 61 57 54 51 48 42
31 31 36 34 22 14 10 10 11 11 14 18 22 27 32 31 36 37 24 28 43 40 36 38 31 38 38 38 33 39 41 41 54 61 56 62 67 64 57 58 56 47 37
23 26 27 20 16 10 7 6 5 6 9 10 13 16 20 29 20 29 31 24 44 37 32 36 36 39 40 39 39 35 44 44 56 73 57 71 54 63 63 61 55 42 38
20 19 14 13 11 10 10 8 6 6 7 10 12 16 17 22 29 28 27 37 42 33 34 31 31 30 41 42 42 42 46 56 59 64 44 55 68 60 66 58 50 39 31
12 12 9 8 7 6 8 6 9 10 10 10 11 16 19 24 26 28 23 38 42 27 32 29 23 31 32 37 40 48 52 62 62 53 57 79 70 73 61 56 47 39 33
15 9 8 6 5 5 7 6 7 10 7 5 7 12 18 23 28 28 21 30 36 36 31 34 25 28 29 37 43 47 57 66 58 53 64 69 64 65 53 44 38 33 25
12 12 8 2 2 6 8 7 13 12 11 12 15 11 15 19 21 25 31 34 41 40 34 41 35 27 39 44 56 54 62 63 63 60 78 65 61 52 47 40 35 27 23
15 10 3 3 9 15 10 10 13 18 20 13 11 19 16 18 19 21 25 30 35 42 42 49 42 43 55 60 66 71 76 72 80 71 65 66 57 54 47 42 37 29 24
14 8 5 7 15 12 5 2 7 15 20 20 11 16 17 20 26 27 19 21 33 35 41 56 53 52 70 74 71 87 85 78 79 71 64 58 49 41 40 34 28 26 23
14 7 5 5 9 7 8 2 5 5 8 18 19 16 20 22 16 21 25 31 39 45 55 58 56 65 69 84 90 94 93 84 77 66 58 48 43 35 35 34 28 25 21
11 9 7 2 7 5 6 4 5 8 8 11 18 19 21 18 19 20 38 45 41 44 60 68 79 87 87 87 96 93 84 76 66 59 57 48 42 40 34 28 25 21 15
17 11 7 2 6 6 10 9 14 9 11 18 27 24 18 17 17 28 35 32 30 47 68 86 99 100 95 100 97 91 90 80 61 52 61 52 41 35 29 25 20 17 16
17 14 7 2 3 4 11 13 14 14 16 23 24 27 24 20 23 47 48 51 64 80 85 91 97 101 100 94 90 82 75 72 71 60 51 48 39 30 27 23 22 20 13
18 16 10 6 4 3 9 12 16 20 20 24 23 30 30 29 37 52 62 58 75 84 92 97 91 97 90 87 80 76 73 67 61 54 43 43 38 30 26 25 22 16 12
26 21 12 8 7 4 7 12 20 23 22 24 23 29 30 34 46 62 66 73 70 63 80 76 73 79 76 68 59 59 62 62 56 50 45 25 34 31 26 25 23 20 17
25 22 17 12 9 11 10 14 19 20 23 24 23 28 32 43 47 63 61 52 61 57 50 58 67 63 52 48 49 50 53 53 54 46 41 24 33 28 22 28 28 25 23
Wind_Direction_850mb
241 241 248 250 260 260 256 265 263 261 265 274 271 262 259 266 265 263 257 248 243 235 235 224 219 226 236 235 227 214 199 202 201 210 214 212 213 204 201 209 202 198 202
245 242 245 252 253 253 254 263 272 273 267 265 270 271 266 262 260 256 263 265 247 242 227 227 228 229 237 238 224 213 205 198 203 212 211 214 209 202 207 203 198 195 194
234 228 236 244 247 251 259 265 266 271 265 263 268 270 254 245 248 255 255 252 237 237 230 235 236 233 237 235 221 213 209 201 198 211 207 211 208 206 202 198 196 198 183
222 222 238 249 256 251 257 259 262 259 262 262 263 260 250 241 235 246 249 247 236 233 229 228 241 247 240 228 218 211 211 206 204 205 203 210 208 202 200 199 194 184 176
214 219 240 257 266 258 260 267 270 266 272 266 256 253 244 241 234 243 249 238 231 224 220 212 219 246 226 216 217 212 210 209 202 204 206 211 204 201 199 194 189 180 173
204 232 243 259 272 257 263 275 280 280 276 263 254 245 242 237 238 245 251 236 232 219 214 209 228 242 230 215 211 212 211 207 200 206 206 209 199 200 197 191 188 169 165
234 234 245 271 274 274 280 280 284 281 271 253 247 248 238 233 239 240 246 231 219 219 228 230 222 230 230 218 216 210 211 205 202 201 206 203 201 199 191 189 190 174 172
222 240 263 273 277 280 284 286 278 269 264 247 242 240 238 241 242 242 239 229 226 218 220 215 220 228 234 221 215 210 209 206 204 197 201 205 205 194 185 192 181 183 172
241 253 257 267 270 283 284 277 269 261 259 245 235 222 198 224 222 239 234 222 216 207 207 217 219 227 236 222 221 212 206 206 201 198 207 201 202 192 193 183 180 170 175
239 246 262 269 274 284 278 275 268 254 241 234 223 222 228 216 217 247 221 217 215 207 211 218 221 228 223 220 216 209 205 203 200 198 201 196 195 192 181 178 172 174 175
227 244 259 275 276 275 267 269 263 249 242 230 223 228 236 238 238 246 203 207 209 215 228 224 226 220 227 218 222 206 204 205 197 196 198 198 191 185 177 169 171 172 169
230 252 267 269 258 257 265 269 265 254 244 236 230 229 229 230 228 225 233 210 208 205 216 216 212 218 233 223 216 206 201 202 198 197 193 199 192 183 177 170 172 172 168
252 263 261 243 238 259 252 243 227 209 209 203 212 215 216 219 208 226 238 212 199 196 208 216 222 223 224 217 209 201 200 199 200 203 210 188 186 173 173 168 167 171 175
255 254 211 217 238 241 238 248 275 237 217 219 224 216 211 206 211 225 232 205 182 191 207 218 214 212 213 210 203 206 198 193 197 199 200 200 180 173 166 164 172 159 144
212 182 201 214 224 254 257 278 253 264 229 226 247 227 218 206 209 217 222 207 202 174 199 200 195 208 213 200 200 195 191 188 188 188 193 192 184 181 173 176 162 160 161
152 155 167 199 231 277 285 268 236 229 218 222 210 188 203 205 205 215 210 209 210 217 181 188 181 185 198 187 186 186 181 182 186 191 187 188 166 163 168 159 172 153 159
140 140 127 141 230 351 315 239 233 219 202 243 242 219 205 203 204 215 216 198 199 213 214 178 192 186 193 181 179 175 179 182 185 187 186 161 159 160 158 151 147 162 164
168 164 188 348 342 329 310 213 222 225 227 244 232 210 203 197 184 193 187 192 210 216 211 171 159 167 172 175 174 167 170 180 180 171 150 155 156 153 150 159 162 171 197
163 167 243 316 326 327 340 351 220 220 229 221 224 206 195 174 169 177 237 196 185 178 186 162 154 161 158 157 166 162 164 146 141 139 143 150 156 153 163 171 168 154 169
178 212 252 309 360 27 76 44 290 258 255 197 199 198 179 168 164 164 163 165 157 155 159 157 147 154 158 156 161 147 143 142 145 152 153 148 144 144 134 140 156 170 180
177 181 202 343 26 43 58 35 11 69 112 152 167 163 164 171 177 183 159 154 157 159 160 158 149 141 150 151 147 147 143 148 150 151 147 146 153 161 163 162 170 180 189
181 190 199 14 15 50 63 68 78 90 120 130 140 140 147 164 174 175 169 173 184 171 168 161 151 145 145 149 147 149 152 155 145 156 150 157 164 164 165 172 180 184 182
184 190 217 209 13 70 72 87 92 103 116 133 135 132 130 137 158 159 159 164 162 160 163 162 149 154 150 151 152 156 156 160 157 157 165 159 160 173 179 181 183 185 197
193 212 206 199 201 109 79 109 110 119 117 118 125 131 127 130 138 148 142 151 148 148 152 157 154 154 153 158 159 162 165 161 154 156 171 168 168 177 189 189 190 195 219
201 216 216 221 197 188 124 129 138 130 123 117 112 124 130 141 138 145 141 139 140 145 147 149 153 154 155 161 164 159 161 161 156 166 175 189 176 180 192 201 203 214 231
210 220 219 199 192 199 171 159 161 149 134 126 122 126 133 144 148 152 148 142 147 148 153 155 158 157 161 161 168 168 163 168 165 169 178 189 190 188 203 212 215 224 237